[[{"header":{"parameterUnit":"m.s-1","parameterCategory":2,"la1":30.2992,"la2":30.254,"lo1":-89.0895,"lo2":-89.0443,"dy":0.0025,"dx":0.0025,"nx":19,"ny":19,"refTime":"2026-05-19T03:00:00:Z","depth":"0","parameterNumber":2,"parameterNumberName":"U-component_of_CURRENTS"},"data":[0,0,0,-0.2403,-0.2404,-0.2449,-0.2449,-0.2437,-0.2437,0,0,0,0,0,0,0,0,0,0,0,-0.238,-0.2381,-0.2403,-0.2404,-0.2449,-0.2449,-0.2437,-0.2437,0,0,0,0,0,0,0,0,0,0,0,-0.238,-0.2381,-0.2381,-0.2405,-0.2449,-0.2449,-0.2437,-0.2417,0,0,0,0,0,0,0,0,0,0,-0.2381,-0.2362,-0.2381,-0.2381,-0.2405,-0.2449,-0.2449,-0.2417,-0.2418,-0.2401,0,-0.2417,0,-0.2435,-0.2436,-0.2436,0,0,0,-0.239,-0.2361,-0.239,-0.2382,-0.2405,-0.2449,-0.2425,-0.2418,-0.242,-0.2403,-0.2417,-0.2417,-0.2434,-0.2436,-0.2436,-0.2481,-0.2482,0,0,-0.2388,-0.2368,-0.2389,-0.2392,-0.2427,-0.2424,-0.2427,-0.242,-0.2414,-0.2417,-0.2417,-0.2434,-0.2436,-0.2436,-0.248,-0.2481,0,0,0,-0.239,-0.2366,-0.2397,-0.2391,-0.241,-0.2425,-0.2429,-0.2414,-0.2429,-0.2417,-0.2434,-0.2436,-0.2435,-0.248,-0.2481,-0.2518,0,0,0,-0.2388,-0.237,-0.2396,-0.2382,-0.2411,-0.2419,-0.2422,-0.2429,-0.243,-0.2434,-0.2436,-0.2435,-0.2479,-0.248,-0.2515,-0.2491,0,0,0,-0.2377,-0.2368,-0.238,-0.2381,-0.241,-0.242,-0.2434,-0.243,-0.244,-0.2436,-0.2435,-0.2479,-0.248,-0.2513,-0.2489,-0.2434,0,0,0,-0.2345,-0.239,-0.238,-0.2439,-0.241,-0.2489,-0.2435,-0.2473,-0.2479,-0.2436,-0.2479,-0.2481,-0.2513,-0.2488,-0.2434,-0.2197,-0.2179,0,0,-0.2393,-0.2394,-0.2437,-0.2431,-0.2508,-0.2481,-0.254,-0.2515,-0.2491,-0.2472,-0.2473,-0.2516,-0.2489,-0.2434,-0.2283,-0.2261,0,0,0,-0.2449,-0.2461,-0.2492,-0.2526,-0.2578,-0.2575,-0.2574,-0.2563,-0.2547,-0.2503,-0.2536,-0.2517,-0.2481,-0.2339,-0.2324,-0.2217,-0.2487,-0.2487,-0.2487,-0.2427,-0.2478,-0.2528,-0.258,-0.2619,-0.2642,-0.2637,-0.2612,-0.2606,-0.2608,-0.2564,-0.2567,-0.2421,-0.2405,-0.2303,-0.2604,-0.2605,-0.2605,-0.2605,-0.245,-0.2458,-0.2516,-0.2577,-0.2602,-0.2635,-0.2655,-0.2647,-0.261,-0.2621,-0.2584,-0.2407,-0.2389,-0.2286,-0.2608,-0.2607,-0.2607,-0.2606,-0.2606,-0.2385,-0.2395,-0.2445,-0.2501,-0.2535,-0.2588,-0.2564,-0.2601,-0.2603,-0.2588,-0.2379,-0.2375,-0.2261,-0.2561,-0.2561,-0.2561,-0.256,-0.256,-0.256,-0.2272,-0.2331,-0.2328,-0.241,-0.242,-0.2449,-0.2496,-0.2469,-0.2394,-0.2364,-0.2361,-0.2235,-0.2551,-0.2526,-0.2555,-0.2556,-0.2557,-0.2557,-0.2557,-0.2152,-0.2178,-0.2173,-0.2182,-0.2232,-0.2192,-0.228,-0.2156,-0.2132,-0.2032,-0.1945,-0.2225,-0.2165,-0.2175,-0.214,-0.2068,-0.2068,-0.2068,-0.2068,-0.2026,-0.2058,-0.2008,-0.2003,-0.2026,-0.2059,-0.1849,-0.1765,-0.1681,-0.1598,-0.1692,-0.1663,-0.1688,-0.1602,-0.1625,-0.1581,-0.1368,-0.1367,-0.1367,-0.1903,-0.1921,-0.1846,-0.1899,-0.1934,-0.1885,-0.1618,-0.1362,-0.1265,-0.134,-0.1597,-0.1627,-0.1599,-0.1646,-0.1525,-0.1566,-0.1499,0,0]},{"header":{"parameterUnit":"m.s-1","parameterCategory":2,"la1":30.2992,"la2":30.254,"lo1":-89.0895,"lo2":-89.0443,"dy":0.0025,"dx":0.0025,"nx":19,"ny":19,"refTime":"2026-05-19T03:00:00:Z","depth":"0","parameterNumber":3,"parameterNumberName":"V-component_of_CURRENTS"},"data":[0,0,0,-0.0412,-0.0411,-0.0319,-0.0319,-0.017,-0.0169,0,0,0,0,0,0,0,0,0,0,0,-0.0444,-0.0444,-0.0412,-0.0411,-0.0319,-0.0319,-0.017,-0.0169,0,0,0,0,0,0,0,0,0,0,0,-0.0444,-0.0444,-0.0444,-0.041,-0.032,-0.0319,-0.0171,-0.0243,0,0,0,0,0,0,0,0,0,0,-0.0333,-0.0378,-0.0444,-0.0444,-0.041,-0.032,-0.0319,-0.0246,-0.0238,-0.0208,0,-0.0208,0,-0.0192,-0.016,-0.016,0,0,0,-0.0391,-0.0385,-0.0361,-0.0444,-0.0409,-0.032,-0.0355,-0.0242,-0.0233,-0.0198,-0.0205,-0.02,-0.0189,-0.0159,-0.0159,-0.0062,-0.0062,0,0,-0.0396,-0.0421,-0.0367,-0.0355,-0.0402,-0.0358,-0.0353,-0.0237,-0.0233,-0.0205,-0.0196,-0.0187,-0.0158,-0.0157,-0.0062,-0.0062,0,0,0,-0.0424,-0.0425,-0.0403,-0.0361,-0.0351,-0.0356,-0.0349,-0.0238,-0.0232,-0.0195,-0.0185,-0.0158,-0.0156,-0.0062,-0.0062,-0.0136,0,0,0,-0.0426,-0.0442,-0.0406,-0.0419,-0.0354,-0.0299,-0.0354,-0.0239,-0.0226,-0.0186,-0.0157,-0.0155,-0.0062,-0.0062,-0.0134,-0.0167,0,0,0,-0.0445,-0.0444,-0.0439,-0.0421,-0.039,-0.0301,-0.0287,-0.0236,-0.0221,-0.0159,-0.0154,-0.0062,-0.0062,-0.0132,-0.0163,-0.0101,0,0,0,-0.0465,-0.0492,-0.044,-0.046,-0.0391,-0.0355,-0.0287,-0.0247,-0.0203,-0.0157,-0.0062,-0.0062,-0.0132,-0.0161,-0.01,0.0023,0.003,0,0,-0.0516,-0.0498,-0.051,-0.0462,-0.0459,-0.0365,-0.0336,-0.0249,-0.0186,-0.0095,-0.0092,-0.0134,-0.0163,-0.01,0.003,0.0038,0,0,0,-0.0537,-0.0548,-0.0537,-0.0519,-0.0467,-0.0403,-0.0313,-0.0259,-0.0175,-0.0161,-0.0111,-0.0126,-0.0084,-0.0008,-0.0003,0.0155,-0.0062,-0.0062,-0.0062,-0.0632,-0.0601,-0.0617,-0.0569,-0.0531,-0.0422,-0.036,-0.0263,-0.0207,-0.0179,-0.0169,-0.0151,-0.0072,-0.0066,0.0093,-0.0148,-0.0148,-0.0148,-0.0148,-0.0719,-0.0729,-0.0673,-0.0681,-0.0591,-0.0546,-0.0396,-0.0336,-0.022,-0.0201,-0.0156,-0.007,-0.0064,0.0104,-0.0153,-0.0152,-0.0151,-0.0151,-0.015,-0.0787,-0.0787,-0.0784,-0.0773,-0.0722,-0.0614,-0.0514,-0.0414,-0.0285,-0.0251,-0.0086,-0.0083,0.0057,-0.0205,-0.0205,-0.0205,-0.0205,-0.0205,-0.0204,-0.0859,-0.0852,-0.0878,-0.0859,-0.0838,-0.0762,-0.0581,-0.046,-0.0251,-0.014,-0.0138,0.0097,-0.0166,-0.0173,-0.0203,-0.0203,-0.0203,-0.0203,-0.0204,-0.0937,-0.0936,-0.0974,-0.0973,-0.091,-0.0729,-0.0613,-0.028,-0.0171,-0.0028,0.0225,-0.0041,0.0013,0.0011,0.0011,0.003,0.003,0.0031,0.0031,-0.0986,-0.0991,-0.1026,-0.1017,-0.0947,-0.0713,-0.0289,0.0014,0.0283,0.0411,0.0407,0.0447,0.043,0.0511,0.0498,0.0508,0.0653,0.0654,0.0655,-0.1027,-0.1033,-0.1054,-0.1038,-0.0945,-0.06,-0.0018,0.0551,0.0729,0.0691,0.0601,0.0575,0.0638,0.06,0.0728,0.0696,0.0713,0,0]}],[{"header":{"parameterUnit":"m.s-1","parameterCategory":2,"la1":30.2992,"la2":30.254,"lo1":-89.0895,"lo2":-89.0443,"dy":0.0025,"dx":0.0025,"nx":19,"ny":19,"refTime":"2026-05-19T03:00:00:Z","depth":"2","parameterNumber":2,"parameterNumberName":"U-component_of_CURRENTS"},"data":[0,0,0,-0.2067,-0.2068,-0.2113,-0.2113,-0.2113,-0.2113,0,0,0,0,0,0,0,0,0,0,0,-0.2046,-0.2047,-0.2067,-0.2068,-0.2113,-0.2113,-0.2113,-0.2113,0,0,0,0,0,0,0,0,0,0,0,-0.2046,-0.2047,-0.2047,-0.2069,-0.2113,-0.2113,-0.2113,-0.2091,0,0,0,0,0,0,0,0,0,0,-0.2054,-0.2038,-0.2047,-0.2047,-0.2069,-0.2113,-0.2113,-0.2091,-0.2093,-0.2079,0,-0.2091,0,-0.2106,-0.2112,-0.2112,0,0,0,-0.206,-0.2036,-0.206,-0.2047,-0.2069,-0.2113,-0.2091,-0.2092,-0.2094,-0.2081,-0.2091,-0.2091,-0.2106,-0.2112,-0.2112,-0.2148,-0.2148,0,0,-0.2058,-0.2041,-0.2059,-0.2061,-0.2086,-0.2089,-0.2092,-0.2094,-0.209,-0.2091,-0.2092,-0.2106,-0.2112,-0.2112,-0.2147,-0.2148,0,0,0,-0.2056,-0.204,-0.2063,-0.206,-0.2076,-0.2091,-0.2094,-0.209,-0.2101,-0.2092,-0.2106,-0.2112,-0.2112,-0.2147,-0.2148,-0.2184,0,0,0,-0.2054,-0.204,-0.2062,-0.2051,-0.2077,-0.209,-0.2089,-0.2101,-0.2102,-0.2106,-0.2112,-0.2112,-0.2146,-0.2147,-0.2182,-0.2169,0,0,0,-0.2043,-0.2038,-0.2048,-0.2051,-0.2076,-0.2091,-0.2102,-0.2102,-0.2111,-0.2112,-0.2112,-0.2146,-0.2147,-0.218,-0.2167,-0.2119,0,0,0,-0.2019,-0.2049,-0.2047,-0.2089,-0.2076,-0.2138,-0.2102,-0.2137,-0.2145,-0.2112,-0.2147,-0.2148,-0.2179,-0.2165,-0.2119,-0.1888,-0.1871,0,0,-0.2049,-0.2051,-0.2081,-0.2082,-0.2141,-0.2131,-0.2179,-0.217,-0.2153,-0.2139,-0.214,-0.2183,-0.2166,-0.2119,-0.1951,-0.1931,0,0,0,-0.2087,-0.2096,-0.2119,-0.2148,-0.2191,-0.2201,-0.2208,-0.2204,-0.22,-0.2164,-0.2195,-0.2183,-0.2151,-0.2013,-0.1998,-0.2153,-0.2153,-0.2153,-0.2152,-0.2066,-0.2106,-0.2143,-0.2187,-0.2222,-0.2253,-0.2258,-0.2246,-0.2243,-0.2249,-0.2223,-0.2224,-0.208,-0.2065,-0.225,-0.225,-0.225,-0.225,-0.225,-0.2075,-0.2079,-0.2135,-0.2183,-0.2216,-0.225,-0.2279,-0.228,-0.2259,-0.2267,-0.2235,-0.2072,-0.205,-0.2253,-0.2253,-0.2252,-0.2252,-0.2252,-0.2252,-0.2021,-0.2026,-0.2071,-0.2123,-0.2166,-0.2223,-0.2211,-0.2255,-0.2261,-0.2252,-0.2051,-0.2047,-0.22,-0.2227,-0.2227,-0.2227,-0.2227,-0.2226,-0.2226,-0.1922,-0.1972,-0.1973,-0.205,-0.2067,-0.2106,-0.2161,-0.2141,-0.2074,-0.2043,-0.204,-0.2214,-0.2215,-0.2197,-0.2223,-0.2223,-0.2224,-0.2224,-0.2224,-0.1809,-0.1838,-0.1833,-0.1847,-0.1895,-0.1828,-0.1951,-0.184,-0.1828,-0.1736,-0.1902,-0.1911,-0.1856,-0.1865,-0.1838,-0.1769,-0.1769,-0.1769,-0.1769,-0.1698,-0.1727,-0.1677,-0.1666,-0.1672,-0.1683,-0.148,-0.1435,-0.148,-0.1471,-0.1485,-0.1459,-0.1482,-0.1407,-0.1427,-0.1392,-0.1207,-0.1206,-0.1206,-0.1587,-0.1601,-0.1521,-0.1553,-0.1557,-0.1466,-0.1199,-0.1014,-0.1007,-0.1193,-0.148,-0.1714,-0.1711,-0.1734,-0.1649,-0.167,-0.1625,0,0]},{"header":{"parameterUnit":"m.s-1","parameterCategory":2,"la1":30.2992,"la2":30.254,"lo1":-89.0895,"lo2":-89.0443,"dy":0.0025,"dx":0.0025,"nx":19,"ny":19,"refTime":"2026-05-19T03:00:00:Z","depth":"2","parameterNumber":3,"parameterNumberName":"V-component_of_CURRENTS"},"data":[0,0,0,-0.04,-0.0399,-0.0328,-0.0328,-0.0203,-0.0202,0,0,0,0,0,0,0,0,0,0,0,-0.0423,-0.0423,-0.04,-0.0399,-0.0328,-0.0328,-0.0203,-0.0202,0,0,0,0,0,0,0,0,0,0,0,-0.0423,-0.0423,-0.0423,-0.0399,-0.0328,-0.0328,-0.0204,-0.0261,0,0,0,0,0,0,0,0,0,0,-0.0332,-0.0369,-0.0423,-0.0423,-0.0398,-0.0329,-0.0328,-0.0264,-0.0257,-0.0231,0,-0.0232,0,-0.0222,-0.0195,-0.0194,0,0,0,-0.038,-0.0374,-0.0355,-0.0423,-0.0398,-0.0329,-0.0355,-0.026,-0.0253,-0.0222,-0.0231,-0.0226,-0.022,-0.0194,-0.0194,-0.0104,-0.0104,0,0,-0.0384,-0.0404,-0.0361,-0.0351,-0.0394,-0.0357,-0.0353,-0.0256,-0.0254,-0.023,-0.0223,-0.0218,-0.0193,-0.0192,-0.0104,-0.0104,0,0,0,-0.0408,-0.0407,-0.0391,-0.0356,-0.035,-0.0356,-0.0351,-0.0258,-0.0253,-0.0222,-0.0216,-0.0193,-0.0191,-0.0104,-0.0104,-0.0174,0,0,0,-0.0409,-0.0422,-0.0393,-0.0404,-0.0353,-0.0309,-0.0355,-0.026,-0.0249,-0.0217,-0.0193,-0.019,-0.0104,-0.0104,-0.0172,-0.0204,0,0,0,-0.0424,-0.0424,-0.042,-0.0405,-0.0383,-0.0311,-0.03,-0.0257,-0.0246,-0.0194,-0.019,-0.0105,-0.0104,-0.0171,-0.0201,-0.0151,0,0,0,-0.0439,-0.0464,-0.0421,-0.0442,-0.0384,-0.0356,-0.03,-0.0268,-0.0231,-0.0192,-0.0104,-0.0104,-0.017,-0.0199,-0.0151,-0.0072,-0.0069,0,0,-0.0485,-0.047,-0.0482,-0.0442,-0.0446,-0.0364,-0.0341,-0.0269,-0.0212,-0.0131,-0.0129,-0.0173,-0.0201,-0.0151,-0.0052,-0.0049,0,0,0,-0.0505,-0.0517,-0.0509,-0.0498,-0.0454,-0.04,-0.0324,-0.0276,-0.0202,-0.0191,-0.0146,-0.0161,-0.0127,-0.0078,-0.0075,-0.0102,-0.0102,-0.0102,-0.0103,-0.0592,-0.0566,-0.0584,-0.0545,-0.0515,-0.0419,-0.0365,-0.0277,-0.0228,-0.0201,-0.0198,-0.0183,-0.0132,-0.0129,-0.0173,-0.0173,-0.0173,-0.0174,-0.0174,-0.0676,-0.0689,-0.064,-0.0653,-0.0574,-0.0536,-0.0399,-0.0344,-0.0242,-0.0223,-0.0186,-0.0131,-0.013,-0.0179,-0.0178,-0.0177,-0.0176,-0.0176,-0.0176,-0.0742,-0.0745,-0.0744,-0.0742,-0.07,-0.0604,-0.052,-0.0423,-0.0305,-0.0276,-0.0154,-0.0151,-0.0212,-0.024,-0.024,-0.0239,-0.0239,-0.0239,-0.0239,-0.0813,-0.0809,-0.084,-0.0828,-0.0815,-0.0753,-0.059,-0.0487,-0.0307,-0.0209,-0.0207,-0.0203,-0.0201,-0.0212,-0.0238,-0.0239,-0.0239,-0.0239,-0.0239,-0.0892,-0.0892,-0.094,-0.0947,-0.0912,-0.086,-0.0689,-0.0414,-0.0284,-0.0168,-0.0135,-0.0138,-0.0092,-0.0093,-0.0099,-0.0094,-0.0094,-0.0094,-0.0094,-0.0944,-0.0949,-0.101,-0.1026,-0.0997,-0.0903,-0.0711,-0.042,-0.0157,-0.0047,-0.0049,-0.0043,-0.0049,-0.0,-0.0003,-0.0007,0.0022,0.0022,0.0022,-0.0988,-0.1001,-0.1051,-0.1066,-0.1032,-0.0937,-0.077,-0.0442,-0.0074,0.0021,-0.0083,-0.0076,-0.0072,-0.0079,-0.0007,-0.0011,-0.0018,0,0]}],[{"header":{"parameterUnit":"m.s-1","parameterCategory":2,"la1":30.2992,"la2":30.254,"lo1":-89.0895,"lo2":-89.0443,"dy":0.0025,"dx":0.0025,"nx":19,"ny":19,"refTime":"2026-05-19T03:00:00:Z","depth":"4","parameterNumber":2,"parameterNumberName":"U-component_of_CURRENTS"},"data":[0,0,0,-0.1475,-0.1477,-0.1581,-0.1581,-0.1642,-0.1642,0,0,0,0,0,0,0,0,0,0,0,-0.1444,-0.1445,-0.1475,-0.1477,-0.1581,-0.1581,-0.1642,-0.1642,0,0,0,0,0,0,0,0,0,0,0,-0.1444,-0.1444,-0.1446,-0.1478,-0.1581,-0.1581,-0.1642,-0.1582,0,0,0,0,0,0,0,0,0,0,-0.1491,-0.1474,-0.1444,-0.1446,-0.1478,-0.1581,-0.1582,-0.158,-0.1586,-0.1573,0,-0.1596,0,-0.1615,-0.1644,-0.1644,0,0,0,-0.1481,-0.1469,-0.1493,-0.1446,-0.1479,-0.1581,-0.1535,-0.1584,-0.159,-0.158,-0.1597,-0.1599,-0.1616,-0.1644,-0.1644,-0.1684,-0.1684,0,0,-0.1475,-0.1464,-0.1489,-0.1497,-0.1513,-0.1532,-0.1538,-0.1589,-0.1598,-0.1597,-0.1601,-0.1617,-0.1644,-0.1645,-0.1684,-0.1684,0,0,0,-0.1456,-0.146,-0.1485,-0.1494,-0.1517,-0.1535,-0.1542,-0.1596,-0.1604,-0.1602,-0.1618,-0.1645,-0.1645,-0.1683,-0.1684,-0.1718,0,0,0,-0.1453,-0.1449,-0.1482,-0.1477,-0.1516,-0.1568,-0.1549,-0.1601,-0.1607,-0.1618,-0.1645,-0.1645,-0.1683,-0.1684,-0.1716,-0.172,0,0,0,-0.1438,-0.1447,-0.1461,-0.1476,-0.1519,-0.1568,-0.158,-0.1603,-0.1616,-0.1644,-0.1645,-0.1683,-0.1684,-0.1715,-0.1718,-0.1692,0,0,0,-0.142,-0.1442,-0.1461,-0.1495,-0.1518,-0.1576,-0.158,-0.1633,-0.1661,-0.1645,-0.1683,-0.1684,-0.1714,-0.1717,-0.1692,-0.1446,0,0,0,-0.1432,-0.1443,-0.1463,-0.1482,-0.1533,-0.1562,-0.1615,-0.1656,-0.1659,-0.1661,-0.1663,-0.1717,-0.1718,-0.1692,-0.1477,0,0,0,0,-0.1456,-0.1468,-0.1489,-0.1527,-0.1572,-0.1617,-0.1659,-0.1671,-0.1703,-0.1677,-0.1717,-0.1716,-0.1699,-0.1555,-0.1686,-0.1686,-0.1686,-0.1686,-0.1686,-0.144,-0.1472,-0.1506,-0.1552,-0.1595,-0.1659,-0.1692,-0.1712,-0.1719,-0.1738,-0.1745,-0.1749,-0.16,-0.1751,-0.1751,-0.1751,-0.1751,-0.1751,-0.1751,-0.1435,-0.1439,-0.1508,-0.1555,-0.1616,-0.1669,-0.1724,-0.1745,-0.1761,-0.1769,-0.175,-0.1602,-0.1755,-0.1754,-0.1754,-0.1753,-0.1753,-0.1753,-0.1753,-0.1389,-0.1393,-0.1452,-0.1522,-0.16,-0.1678,-0.1694,-0.176,-0.1779,-0.1785,-0.1599,-0.1754,-0.1748,-0.1772,-0.1772,-0.1772,-0.1772,-0.1772,-0.1772,-0.1298,-0.1354,-0.1382,-0.1481,-0.1526,-0.1595,-0.1681,-0.1669,-0.1718,-0.1597,-0.1786,-0.1754,-0.1754,-0.1747,-0.177,-0.1771,-0.1771,-0.1771,-0.1771,-0.1192,-0.1238,-0.1259,-0.1304,-0.1388,-0.142,-0.1549,-0.1482,-0.1442,-0.1367,-0.1477,-0.1492,-0.1445,-0.1452,-0.1433,-0.1364,-0.1361,-0.1357,0,-0.11,-0.1131,-0.1127,-0.1145,-0.1157,-0.1286,-0.1177,-0.12,-0.1239,-0.12,-0.1438,-0.1566,-0.1574,-0.1526,-0.1527,-0.1506,0,0,0,-0.1011,-0.1029,-0.0982,-0.1028,-0.1032,-0.1036,-0.1132,-0.1065,-0.1267,-0.1142,-0.1279,-0.13,-0.1574,-0.1767,-0.173,-0.1729,-0.1716,0,0]},{"header":{"parameterUnit":"m.s-1","parameterCategory":2,"la1":30.2992,"la2":30.254,"lo1":-89.0895,"lo2":-89.0443,"dy":0.0025,"dx":0.0025,"nx":19,"ny":19,"refTime":"2026-05-19T03:00:00:Z","depth":"4","parameterNumber":3,"parameterNumberName":"V-component_of_CURRENTS"},"data":[0,0,0,-0.026,-0.026,-0.0231,-0.0231,-0.015,-0.0149,0,0,0,0,0,0,0,0,0,0,0,-0.0269,-0.0269,-0.026,-0.026,-0.0231,-0.0231,-0.015,-0.0149,0,0,0,0,0,0,0,0,0,0,0,-0.0269,-0.0269,-0.027,-0.026,-0.0231,-0.0231,-0.015,-0.0179,0,0,0,0,0,0,0,0,0,0,-0.0212,-0.0235,-0.0269,-0.027,-0.026,-0.0231,-0.0231,-0.0181,-0.0177,-0.0155,0,-0.0161,0,-0.016,-0.0144,-0.0144,0,0,0,-0.0245,-0.0239,-0.023,-0.027,-0.026,-0.0231,-0.024,-0.0179,-0.0175,-0.015,-0.016,-0.0158,-0.0158,-0.0143,-0.0143,-0.0071,-0.0071,0,0,-0.0247,-0.026,-0.0233,-0.0228,-0.0266,-0.0241,-0.0239,-0.0177,-0.0178,-0.016,-0.0156,-0.0157,-0.0143,-0.0142,-0.0071,-0.0071,0,0,0,-0.0262,-0.0261,-0.0254,-0.0231,-0.0233,-0.0241,-0.0239,-0.018,-0.0179,-0.0155,-0.0156,-0.0143,-0.0142,-0.0071,-0.0071,-0.0128,0,0,0,-0.0262,-0.0271,-0.0255,-0.0262,-0.0235,-0.0214,-0.0243,-0.0183,-0.0176,-0.0156,-0.0143,-0.0141,-0.0072,-0.0071,-0.0127,-0.0161,0,0,0,-0.0268,-0.0271,-0.0272,-0.0263,-0.0257,-0.0215,-0.0209,-0.0181,-0.0177,-0.0144,-0.0141,-0.0072,-0.0071,-0.0127,-0.0158,-0.0125,0,0,0,-0.0276,-0.0297,-0.0273,-0.0292,-0.0258,-0.0245,-0.0209,-0.0193,-0.0169,-0.0142,-0.0072,-0.0071,-0.0126,-0.0157,-0.0124,-0.0145,0,0,0,-0.0308,-0.0301,-0.0312,-0.029,-0.03,-0.0247,-0.0235,-0.0191,-0.0149,-0.0087,-0.0085,-0.0128,-0.0158,-0.0125,-0.0112,0,0,0,0,-0.0326,-0.0338,-0.0335,-0.0335,-0.0309,-0.0279,-0.0229,-0.0194,-0.0141,-0.0135,-0.01,-0.0117,-0.0095,-0.0104,-0.0069,-0.0069,-0.0069,-0.0069,-0.0069,-0.0389,-0.0375,-0.0395,-0.0374,-0.0357,-0.0295,-0.0259,-0.0195,-0.0157,-0.0137,-0.0144,-0.0132,-0.0144,-0.0115,-0.0115,-0.0115,-0.0115,-0.0116,-0.0116,-0.0454,-0.0467,-0.0443,-0.0463,-0.0414,-0.0393,-0.0291,-0.025,-0.0177,-0.0159,-0.0133,-0.014,-0.0121,-0.012,-0.0119,-0.0118,-0.0118,-0.0118,-0.0117,-0.0503,-0.0507,-0.0521,-0.0539,-0.0524,-0.0458,-0.0405,-0.0328,-0.0234,-0.0214,-0.0175,-0.015,-0.0166,-0.0188,-0.0188,-0.0188,-0.0188,-0.0188,-0.0188,-0.0549,-0.0558,-0.0602,-0.0614,-0.0623,-0.059,-0.0477,-0.0403,-0.0299,-0.0235,-0.0222,-0.0156,-0.0153,-0.0167,-0.0188,-0.0188,-0.0188,-0.0188,-0.0188,-0.0601,-0.0615,-0.0677,-0.0705,-0.0717,-0.0678,-0.0583,-0.041,-0.033,-0.0247,-0.0219,-0.0217,-0.0189,-0.0185,-0.0199,-0.023,-0.0231,-0.0231,0,-0.0635,-0.0646,-0.0733,-0.0779,-0.0782,-0.0721,-0.0598,-0.0483,-0.0342,-0.0351,-0.0335,-0.0313,-0.0309,-0.0285,-0.0282,-0.0304,0,0,0,-0.0666,-0.0689,-0.0754,-0.0805,-0.081,-0.0661,-0.0558,-0.0496,-0.0378,-0.0277,-0.024,-0.0237,-0.0237,-0.0188,-0.0139,-0.0136,-0.0155,0,0]}]]